Weather History for Lanai City, HI

Change the Weather History Date:

Sunday, December 1, 2013

  Actual Average Record
Temperature  
Mean Temperature 72 °F -  
Max Temperature 79 °F 79 °F 82 °F (1951)
Min Temperature 66 °F 61 °F 56 °F (1980)
Cooling Degree Days 8    
Growing Degree Days 22 (Base 50)    
Moisture  
Dew Point 69 °F    
Average Humidity 86    
Maximum Humidity 100    
Minimum Humidity 65    
Precipitation  
Precipitation 0.00 in - - ()
Sea Level Pressure  
Sea Level Pressure 29.99 in    
Wind  
Wind Speed 9 mph (SSE)    
Max Wind Speed 23 mph    
Max Gust Speed 26 mph    
Visibility 10 miles    
Events      
Averages and records for this station are not official NWS values.
T = Trace of Precipitation, MM = Missing Value Source: NWS Daily Summary

Daily Weather History Graph

Daily Weather History Graph

Search for Another Location

Airport:

Trip Planner

Search our weather history database for the weather conditions in past years. The results will help you decide how hot, cold, wet, or windy it might be!

Date:

Astronomy

Dec. 01, 2013 Rise Set
Actual Time 6:48 AM HST 5:45 PM HST
Civil Twilight 6:24 AM HST 6:09 PM HST
Nautical Twilight 5:56 AM HST 6:37 PM HST
Astronomical Twilight 5:29 AM HST 7:04 PM HST
Moon 5:27 AM HST (12/1) 4:58 PM HST (12/1)
Length of Visible Light 11h 45m
Length of Day
10h 57m
Waning Crescent, 2% of the Moon is Illuminated
Dec 1
Waning Crescent
Dec 2
New
Dec 9
First Quarter
Dec 16
Full
Dec 25
Last Quarter

Hourly Weather History & Observations

Time (HST) Temp. Dew Point Humidity Pressure Visibility Wind Dir Wind Speed Gust Speed Precip Events Conditions
12:42 AM 71.6 °F 69.8 °F 94% 30.01 in 10.0 mi ESE 9.2 mph - N/A   Partly Cloudy
12:56 AM 70.9 °F 70.0 °F 97% 29.94 in 10.0 mi ESE 9.2 mph - N/A   Clear
1:47 AM 69.8 °F 69.8 °F 100% 30.00 in 10.0 mi SSE 6.9 mph - N/A   Partly Cloudy
1:56 AM 70.0 °F 70.0 °F 100% 29.93 in 10.0 mi ESE 6.9 mph - N/A   Clear
2:56 AM 68.0 °F 68.0 °F 100% 29.92 in 10.0 mi East 8.1 mph - N/A   Partly Cloudy
3:56 AM 66.9 °F 66.9 °F 100% 29.92 in 10.0 mi East 4.6 mph - N/A   Clear
4:56 AM 68.0 °F 68.0 °F 100% 29.93 in 10.0 mi Calm Calm - N/A   Clear
5:56 AM 70.0 °F 68.9 °F 96% 29.95 in 10.0 mi WSW 5.8 mph - N/A   Mostly Cloudy
6:11 AM 71.6 °F 69.8 °F 94% 30.01 in 10.0 mi SSW 4.6 mph - N/A   Mostly Cloudy
6:56 AM 70.9 °F 70.0 °F 97% 29.96 in 10.0 mi South 9.2 mph - N/A   Mostly Cloudy
7:43 AM 71.6 °F 69.8 °F 94% 30.05 in 10.0 mi South 10.4 mph - N/A   Overcast
7:56 AM 71.6 °F 69.8 °F 94% 30.05 in 10.0 mi South 6.9 mph - N/A   Overcast
8:47 AM 73.4 °F 69.8 °F 88% 30.05 in 10.0 mi South 11.5 mph - N/A   Scattered Clouds
8:56 AM 73.9 °F 68.9 °F 84% 29.99 in 10.0 mi South 9.2 mph - N/A   Partly Cloudy
9:56 AM 77.9 °F 66.9 °F 69% 29.99 in 10.0 mi SSW 12.7 mph - N/A   Partly Cloudy
10:56 AM 79.0 °F 68.9 °F 71% 29.98 in 10.0 mi South 13.8 mph - N/A   Mostly Cloudy
11:42 AM 77.0 °F 69.8 °F 78% 30.04 in 10.0 mi South 16.1 mph 25.3 mph N/A   Overcast
11:56 AM 77.9 °F 70.0 °F 76% 29.97 in 10.0 mi South 21.9 mph - N/A   Mostly Cloudy
12:27 PM 78.8 °F 66.2 °F 65% 30.01 in 10.0 mi South 23.0 mph 26.5 mph N/A   Mostly Cloudy
12:56 PM 79.0 °F 66.9 °F 66% 29.93 in 10.0 mi South 18.4 mph - N/A   Mostly Cloudy
1:56 PM 78.8 °F 69.8 °F 74% 29.96 in 10.0 mi South 16.1 mph 24.2 mph N/A   Mostly Cloudy
2:56 PM 77.9 °F 68.0 °F 71% 29.90 in 10.0 mi SSE 11.5 mph - N/A   Overcast
3:04 PM 78.8 °F 68.0 °F 69% 29.96 in 10.0 mi SSE 11.5 mph - N/A   Mostly Cloudy
3:18 PM 78.8 °F 68.0 °F 69% 29.97 in 10.0 mi SSE 10.4 mph - N/A   Mostly Cloudy
3:26 PM 78.8 °F 66.2 °F 65% 29.97 in 10.0 mi SE 10.4 mph - N/A   Overcast
3:33 PM 77.0 °F 66.2 °F 69% 29.97 in 10.0 mi SSE 10.4 mph - N/A   Overcast
3:56 PM 77.0 °F 66.9 °F 71% 29.91 in 10.0 mi SSE 9.2 mph - N/A   Mostly Cloudy
4:45 PM 75.2 °F 69.8 °F 83% 29.98 in 10.0 mi SSE 12.7 mph - N/A   Mostly Cloudy
4:56 PM 75.2 °F 71.6 °F 89% 29.99 in 10.0 mi South 10.4 mph 18.4 mph N/A   Mostly Cloudy
5:10 PM 73.4 °F 69.8 °F 88% 30.00 in 10.0 mi SSE 9.2 mph - N/A   Mostly Cloudy
5:20 PM 73.4 °F 71.6 °F 94% 30.01 in 10.0 mi South 9.2 mph - N/A   Mostly Cloudy
5:40 PM 73.4 °F 71.6 °F 94% 30.02 in 10.0 mi South 8.1 mph - N/A   Scattered Clouds
5:56 PM 72.9 °F 70.0 °F 91% 29.97 in 10.0 mi South 5.8 mph - N/A   Partly Cloudy
6:56 PM 72.0 °F 66.9 °F 84% 29.97 in 10.0 mi South 3.5 mph - N/A   Partly Cloudy
7:23 PM 69.8 °F 68.0 °F 94% 30.03 in 10.0 mi WNW 5.8 mph - N/A   Mostly Cloudy
7:35 PM 69.8 °F 68.0 °F 94% 30.03 in 10.0 mi Calm Calm - N/A   Mostly Cloudy
7:44 PM 69.8 °F 69.8 °F 100% 30.04 in 10.0 mi Calm Calm - N/A   Overcast
7:56 PM 69.8 °F 69.8 °F 100% 30.04 in 10.0 mi Calm Calm - N/A   Mostly Cloudy
8:56 PM 70.0 °F 66.9 °F 90% 30.00 in 10.0 mi Calm Calm - N/A   Partly Cloudy
9:56 PM 68.9 °F 68.0 °F 97% 30.00 in 10.0 mi East 4.6 mph - N/A   Mostly Cloudy
10:56 PM 71.6 °F 66.2 °F 83% 30.06 in 10.0 mi Calm Calm - N/A   Mostly Cloudy
11:08 PM 69.8 °F 64.4 °F 83% 30.06 in 10.0 mi East 4.6 mph - N/A   Overcast
11:56 PM 68.0 °F 66.9 °F 96% 29.99 in 10.0 mi East 4.6 mph - N/A   Scattered Clouds